Temperature
18 18 18 18 18 18 18 18 18 18 18 18 17 17 18 18 18 18 18 17 17 17 17 17 17 17 17 17 17 17 17 16 16 16 16 16 16 16 16 16 16 16 16
18 18 18 18 18 18 18 18 18 18 17 17 17 17 17 17 18 17 17 18 17 17 17 17 17 17 17 17 17 17 17 17 16 16 16 16 16 16 16 16 16 16 16
18 18 18 18 18 18 18 18 17 17 17 17 17 17 17 17 17 17 17 17 17 17 17 17 17 17 17 17 17 17 17 17 17 16 16 16 16 16 16 16 16 16 16
18 18 18 18 18 18 17 17 17 17 17 17 17 17 17 17 17 17 17 17 17 17 17 17 17 17 17 17 17 17 17 17 16 16 16 16 16 16 16 16 16 16 16
18 18 18 18 18 18 17 17 17 17 17 17 17 17 17 17 17 17 17 17 17 17 17 17 17 17 17 17 17 17 17 16 16 16 16 16 16 16 16 16 16 16 16
18 18 18 18 18 17 17 17 17 17 17 17 17 17 17 17 17 17 17 17 17 17 17 17 17 17 17 17 17 17 16 16 16 16 16 16 16 16 16 16 16 16 16
18 18 18 18 17 17 17 17 17 17 17 17 17 17 17 17 17 17 17 17 17 17 17 17 17 17 17 17 16 16 16 16 16 16 16 16 16 16 16 16 16 16 16
18 17 17 17 17 17 17 17 17 17 17 17 17 17 17 17 17 17 17 17 17 17 17 17 17 17 17 17 16 16 16 16 16 16 16 16 16 16 16 16 16 15 15
17 17 17 17 17 17 17 17 17 17 17 17 17 17 17 17 17 17 17 17 17 17 17 17 17 17 17 17 16 16 16 16 16 16 16 16 16 16 15 15 15 15 15
17 17 17 17 17 17 17 17 17 17 17 17 17 17 17 18 17 17 17 17 17 17 17 17 17 17 17 17 17 16 16 16 16 16 16 16 15 15 15 15 15 15 15
17 17 17 17 17 17 17 17 17 17 17 17 17 17 17 17 17 18 18 18 18 18 17 17 17 17 17 17 17 17 16 16 16 16 16 16 15 15 15 15 15 15 15
17 17 17 17 17 17 17 17 17 17 17 17 17 17 17 17 17 18 18 18 18 18 18 18 18 17 17 17 17 17 17 16 16 16 16 16 16 15 15 15 15 15 15
17 17 17 17 17 17 16 16 16 17 17 17 17 17 17 17 17 17 18 18 18 18 18 18 18 18 17 17 17 17 17 17 16 16 16 16 16 15 15 15 15 15 15
17 17 17 17 17 17 17 16 16 16 16 17 17 17 17 17 17 17 17 17 17 17 18 17 18 17 17 17 17 17 17 16 16 16 16 16 16 15 15 15 15 15 15
17 17 17 17 17 17 16 16 16 16 16 16 16 17 17 17 17 17 17 17 17 17 17 17 17 17 17 17 17 17 17 16 16 16 16 16 15 15 15 15 15 15 15
17 17 17 17 17 16 16 16 16 16 16 16 16 16 16 16 16 16 17 17 17 16 16 17 17 17 17 17 17 16 16 16 16 16 16 15 15 15 15 15 15 15 15
17 17 17 16 16 16 16 16 16 16 16 16 16 16 16 16 16 16 16 16 16 16 16 16 16 16 16 16 16 16 16 16 16 15 15 15 15 15 15 15 15 15 15
16 16 16 16 16 16 16 16 16 16 16 16 16 16 16 16 16 16 16 15 15 15 15 15 16 15 16 16 15 15 15 15 15 15 15 15 15 14 15 15 15 15 15
16 16 16 16 16 16 16 16 16 16 16 15 15 15 15 15 15 15 15 15 15 15 15 15 15 15 15 15 15 15 14 14 14 14 14 14 14 14 14 14 14 14 14
16 16 16 16 16 16 15 15 15 15 15 15 15 15 15 14 14 14 14 14 14 14 14 14 14 14 14 14 14 14 14 14 14 14 13 13 13 13 13 13 13 13 13
16 16 16 16 15 15 15 15 15 15 15 14 14 14 14 13 13 13 13 13 13 13 13 13 13 13 13 12 12 12 12 12 13 12 13 13 13 13 12 12 12 12 12
15 15 15 15 15 15 15 14 14 14 14 13 13 13 13 12 12 12 12 12 12 12 12 12 12 11 11 11 11 10 10 11 11 11 11 11 11 11 11 11 11 11 11
15 15 15 14 14 14 14 14 13 13 13 13 12 12 12 12 12 12 11 11 11 11 11 10 10 10 10 9 9 9 9 9 9 9 9 10 10 10 10 10 10 10 10
14 14 14 14 13 13 13 13 12 12 12 12 11 11 11 11 11 11 10 10 10 10 9 9 9 8 8 8 8 8 8 8 8 8 8 8 8 8 9 9 9 9 9
14 13 13 13 13 12 12 12 12 11 11 11 10 10 10 10 10 9 9 9 9 9 8 8 8 7 7 7 7 7 7 7 7 7 7 6 7 7 7 8 8 8 8
13 12 12 11 11 11 11 11 11 11 10 10 10 9 9 9 8 8 8 8 8 8 7 7 7 7 6 6 6 6 6 5 5 5 5 5 5 5 5 6 6 6 7
Wind_Speed
4 5 5 6 7 6 5 4 4 3 3 4 6 8 8 9 10 10 11 15 15 15 15 14 14 13 13 12 12 11 11 11 11 11 11 11 10 10 10 9 9 9 9
6 5 4 4 5 7 7 6 5 3 2 3 3 5 7 9 10 10 11 14 15 16 15 15 14 13 13 12 12 12 11 11 12 11 11 11 11 11 10 9 9 9 9
9 6 4 3 4 7 6 4 3 3 2 2 4 4 6 8 9 10 11 12 13 15 15 15 14 14 13 13 13 12 12 12 12 12 12 12 12 11 10 10 10 9 9
10 7 4 3 5 6 5 3 3 2 2 2 3 3 3 6 8 10 11 11 11 12 14 15 15 15 14 14 13 13 13 13 13 13 13 12 12 12 11 11 10 10 10
10 7 4 3 5 4 3 3 3 3 3 3 3 3 3 4 5 8 8 10 12 12 12 14 15 15 15 14 13 13 14 14 14 14 14 13 13 13 13 12 12 12 12
9 8 4 4 5 3 3 3 3 2 2 3 3 2 1 2 3 4 6 9 11 12 13 12 13 14 15 15 15 14 14 15 15 15 15 15 14 14 14 14 14 14 13
8 6 4 4 4 4 4 4 3 3 2 2 3 2 3 1 2 3 4 5 7 11 12 13 13 13 13 15 16 16 15 15 16 16 16 16 16 16 16 16 16 15 15
8 6 5 4 4 4 4 3 3 3 1 2 4 3 2 3 3 2 3 5 5 7 9 12 14 14 14 13 15 17 17 17 16 17 17 17 17 17 18 18 18 18 17
8 7 6 5 4 4 4 3 4 4 2 1 2 4 4 3 2 3 3 4 5 5 5 8 12 14 15 15 15 17 18 18 17 17 17 17 18 18 18 19 19 19 19
7 8 7 6 5 4 4 4 4 3 4 2 1 0 2 4 3 1 3 2 4 6 6 6 9 13 15 15 16 17 18 19 18 17 17 17 18 18 19 19 19 19 19
5 7 8 6 5 4 4 4 4 4 3 3 2 1 2 2 2 3 2 3 3 4 5 6 6 10 14 15 16 18 19 19 19 19 18 18 17 18 18 18 18 18 19
3 5 7 5 5 4 4 5 5 5 4 4 3 2 2 2 1 2 2 3 3 4 4 5 5 7 12 15 16 17 19 20 21 20 19 18 18 17 17 17 17 18 18
4 5 5 5 4 4 4 4 4 4 4 4 3 2 2 2 2 3 3 1 2 3 2 3 4 7 10 13 15 18 19 20 21 21 20 19 18 18 17 17 17 17 17
5 6 6 6 5 5 4 4 3 3 3 3 3 3 2 0 1 2 3 3 0 2 2 3 2 4 7 10 14 16 16 19 21 21 20 20 19 18 18 18 17 17 17
5 7 7 6 5 5 5 5 3 2 3 3 2 2 1 0 1 1 2 3 3 1 3 3 3 3 4 6 9 10 12 16 19 20 20 20 19 19 19 19 19 19 19
5 7 7 6 6 5 5 4 3 2 3 2 2 2 1 0 1 2 2 2 2 4 2 2 2 3 3 3 4 5 8 10 13 16 17 18 19 20 20 20 20 20 20
6 7 6 6 6 5 5 4 3 3 3 2 1 2 1 1 2 2 2 2 2 2 2 3 2 3 3 3 3 3 4 5 7 10 13 16 17 18 19 19 19 20 20
6 6 6 5 5 4 5 5 4 3 3 3 2 3 2 2 3 3 3 3 2 2 1 1 2 3 3 3 3 3 4 5 6 8 10 11 13 15 17 18 18 19 19
6 6 6 5 4 4 4 4 4 4 4 4 4 4 3 4 4 3 4 3 3 3 2 1 2 2 2 3 3 3 4 5 7 8 8 8 10 12 13 14 15 16 17
7 7 6 6 5 5 5 5 6 6 7 6 6 6 6 5 4 4 4 4 3 4 3 2 2 3 3 3 3 3 4 4 5 7 8 9 11 12 13 14 15 15 15
8 7 7 7 6 5 4 6 7 7 8 8 8 7 7 9 8 6 5 4 4 4 3 3 3 3 3 4 3 3 4 4 4 3 5 7 8 8 11 13 13 13 14
9 9 9 8 7 5 7 10 9 7 8 8 7 7 8 9 10 11 11 10 8 5 3 3 2 2 3 3 3 3 3 4 4 4 5 6 4 5 7 10 13 15 15
11 11 10 10 9 8 12 13 13 9 9 8 7 7 7 8 9 7 9 12 12 13 9 3 3 2 2 3 3 3 3 3 4 5 4 4 4 5 7 12 15 15 15
11 11 10 10 10 11 14 15 15 11 11 10 9 8 8 7 8 7 7 8 8 7 8 6 3 3 4 4 2 2 3 4 4 4 2 3 4 4 6 11 12 13 15
12 11 10 10 11 11 13 14 13 10 10 9 8 7 7 7 9 10 8 7 7 7 10 13 12 11 11 12 8 4 4 4 4 4 2 2 3 5 5 5 9 13 16
13 12 12 11 11 11 13 13 12 8 8 6 6 6 8 7 8 8 6 6 6 5 7 9 10 11 12 13 13 6 3 3 3 4 4 4 4 4 5 4 4 11 14
Wind_Direction
163 169 176 183 193 190 183 176 185 192 175 163 155 150 156 166 174 175 181 179 176 174 174 174 173 173 172 171 171 171 171 172 172 172 172 171 171 169 168 166 165 164 164
162 160 163 176 189 191 186 179 181 174 166 155 149 155 166 168 175 179 183 185 183 182 181 181 181 179 179 180 181 180 182 182 182 183 183 183 182 181 180 180 177 176 176
158 155 155 167 180 182 174 167 164 143 146 147 147 153 162 170 176 184 185 185 187 189 188 186 186 187 188 189 190 191 192 191 190 192 192 191 191 191 190 190 190 189 189
153 147 148 162 165 157 151 143 138 130 126 135 149 167 160 167 176 185 185 186 187 193 197 195 192 194 195 198 199 198 199 200 199 198 199 200 200 201 201 201 200 201 201
152 144 148 156 150 135 134 151 133 137 143 153 163 168 165 160 175 183 187 191 193 197 200 203 202 202 204 207 208 206 206 207 207 206 207 208 209 209 210 210 210 210 211
147 140 139 140 133 122 122 128 127 118 135 155 146 130 167 173 163 183 193 195 200 204 206 207 210 212 213 214 215 214 213 213 214 213 214 214 215 216 217 218 219 219 220
140 134 133 131 127 134 147 141 125 109 101 113 91 56 5 349 205 207 195 190 200 206 207 210 212 214 219 223 223 223 223 222 221 220 220 219 220 220 222 223 225 226 227
145 147 140 135 131 126 124 122 116 111 91 122 127 111 44 341 315 236 204 201 205 205 208 213 213 215 219 221 225 228 229 230 229 227 225 225 225 225 226 227 228 230 232
149 147 142 136 136 134 140 141 132 128 123 75 133 143 147 212 277 308 241 215 205 207 216 217 214 219 222 224 227 231 232 232 232 232 230 228 229 230 231 232 233 234 235
149 149 142 137 135 136 140 144 132 127 125 102 50 94 162 158 156 269 312 266 226 219 218 218 218 222 225 225 228 232 233 233 234 235 234 233 232 234 236 237 238 238 239
152 149 142 133 129 130 136 127 116 112 120 130 124 98 75 74 110 142 240 286 277 247 227 223 218 221 224 224 226 231 233 233 233 234 236 237 236 236 238 240 242 243 243
154 153 142 135 134 133 140 137 127 124 123 120 117 114 127 129 174 160 192 238 252 266 244 234 225 223 224 223 225 229 230 231 232 234 237 238 239 240 241 242 245 246 247
163 169 149 142 141 147 148 137 126 126 133 128 132 129 134 163 175 159 156 203 255 285 286 258 237 232 230 224 226 230 229 230 232 233 236 238 241 244 246 247 247 248 248
172 166 154 150 148 148 143 137 131 137 133 133 125 122 116 124 131 150 161 153 109 320 322 294 291 250 241 231 232 232 232 233 233 234 236 239 242 245 248 249 249 249 250
166 160 157 153 151 148 143 137 130 143 140 141 134 122 122 105 77 99 125 145 151 200 288 295 311 309 282 249 244 232 233 237 236 236 238 242 245 248 249 250 250 250 250
157 157 159 158 155 151 146 137 134 139 136 143 146 123 97 66 58 63 77 93 139 165 222 280 289 312 332 310 272 243 245 249 246 244 245 248 250 252 253 253 253 253 253
156 161 163 161 159 156 151 145 154 147 144 137 113 108 74 61 54 40 54 62 70 127 194 289 298 327 2 354 348 322 295 286 277 267 261 261 263 264 263 261 259 259 258
150 151 150 149 151 147 145 148 156 135 128 123 100 86 60 72 56 41 49 44 40 54 141 290 323 342 358 355 350 352 347 331 312 300 289 281 282 281 277 273 270 268 265
138 134 131 131 127 119 115 124 127 112 103 94 88 85 65 74 63 53 52 43 32 38 53 66 327 335 343 2 359 353 355 354 342 330 330 323 317 313 306 297 289 283 278
129 124 116 113 109 101 96 98 101 97 91 82 78 76 67 68 70 61 56 41 39 36 33 38 6 350 344 343 13 355 344 346 337 340 352 351 345 339 329 319 310 299 292
120 114 107 97 92 94 100 109 107 106 101 92 80 74 70 70 66 62 64 50 50 46 35 29 13 3 357 0 356 343 338 327 323 353 348 337 336 334 330 327 322 318 315
103 98 95 93 84 85 92 100 106 104 103 101 92 79 72 56 55 56 59 57 55 52 42 34 15 2 339 333 331 341 342 351 324 330 345 320 332 329 326 328 332 336 337
107 100 94 90 84 76 83 93 96 97 96 94 89 80 73 57 47 47 50 50 44 44 46 51 22 339 316 310 325 328 328 314 283 294 329 304 323 324 325 329 335 344 347
105 101 95 90 85 75 82 89 91 89 87 84 83 81 76 53 42 49 53 47 36 26 25 31 6 311 311 302 287 286 286 304 295 297 328 293 309 310 319 318 329 347 351
105 99 95 89 85 73 75 83 90 90 88 80 78 77 77 63 47 54 56 44 26 8 13 17 21 24 25 24 21 20 3 1 328 307 329 314 302 309 299 296 317 340 342
108 102 91 84 83 77 73 80 87 96 95 88 71 58 60 57 48 56 60 50 26 353 355 7 15 20 24 24 27 31 14 354 326 310 327 333 308 326 312 299 314 325 324
Height
1550 1552 1553 1555 1556 1557 1559 1560 1561 1562 1563 1564 1565 1566 1566 1567 1568 1569 1570 1571 1571 1573 1574 1575 1576 1577 1578 1578 1579 1580 1581 1582 1583 1584 1584 1585 1586 1587 1587 1588 1589 1589 1590
1550 1552 1553 1554 1556 1557 1558 1560 1561 1562 1563 1564 1565 1566 1566 1567 1568 1569 1570 1571 1571 1573 1574 1575 1576 1577 1578 1578 1579 1580 1581 1582 1583 1583 1584 1585 1586 1586 1587 1588 1589 1589 1590
1550 1551 1553 1554 1555 1557 1558 1559 1560 1561 1562 1563 1564 1565 1566 1567 1568 1569 1570 1571 1571 1572 1574 1575 1575 1576 1577 1578 1579 1580 1581 1582 1582 1583 1584 1585 1585 1586 1587 1587 1588 1589 1589
1549 1551 1552 1553 1555 1556 1557 1558 1560 1561 1562 1563 1564 1565 1566 1567 1567 1569 1570 1571 1571 1572 1573 1574 1575 1576 1577 1578 1578 1579 1580 1581 1582 1582 1583 1584 1585 1585 1586 1587 1587 1588 1588
1548 1550 1551 1553 1554 1555 1556 1557 1559 1560 1561 1562 1563 1564 1565 1566 1567 1568 1569 1570 1571 1572 1573 1573 1574 1575 1576 1577 1577 1578 1579 1580 1581 1581 1582 1583 1583 1584 1585 1585 1586 1587 1587
1547 1549 1551 1552 1553 1554 1555 1557 1558 1560 1561 1562 1563 1564 1565 1566 1567 1567 1568 1569 1570 1571 1572 1573 1573 1574 1575 1576 1576 1577 1577 1578 1579 1580 1580 1581 1582 1583 1583 1584 1584 1585 1586
1546 1548 1549 1551 1552 1553 1555 1556 1557 1559 1560 1561 1563 1564 1565 1565 1566 1566 1567 1568 1569 1570 1571 1571 1572 1573 1573 1574 1575 1575 1576 1576 1577 1578 1578 1579 1580 1580 1581 1582 1583 1583 1584
1545 1546 1548 1550 1551 1552 1554 1555 1557 1558 1559 1561 1562 1563 1564 1566 1565 1565 1566 1567 1568 1569 1569 1570 1571 1571 1572 1572 1573 1574 1574 1574 1575 1575 1576 1576 1577 1578 1579 1579 1580 1580 1581
1543 1545 1547 1548 1550 1551 1553 1554 1556 1557 1558 1560 1561 1563 1563 1563 1564 1565 1565 1566 1567 1567 1568 1569 1569 1570 1570 1571 1571 1572 1572 1573 1573 1573 1574 1574 1575 1575 1576 1576 1577 1577 1578
1542 1544 1546 1547 1549 1550 1552 1553 1555 1556 1558 1559 1560 1561 1563 1563 1563 1563 1565 1565 1566 1566 1567 1567 1568 1568 1569 1569 1570 1570 1570 1571 1571 1571 1571 1572 1572 1572 1573 1573 1573 1574 1574
1541 1543 1544 1546 1548 1549 1551 1552 1554 1555 1557 1558 1560 1561 1561 1562 1563 1563 1563 1564 1564 1565 1565 1566 1566 1566 1567 1567 1568 1568 1568 1569 1569 1569 1569 1569 1569 1569 1569 1570 1570 1570 1570
1539 1541 1543 1545 1547 1548 1550 1552 1553 1555 1556 1558 1559 1560 1561 1561 1562 1562 1562 1562 1563 1563 1564 1564 1564 1565 1565 1565 1566 1566 1566 1567 1567 1567 1567 1567 1566 1566 1566 1566 1566 1566 1566
1537 1539 1541 1543 1545 1547 1549 1550 1552 1553 1555 1556 1558 1559 1560 1560 1561 1561 1561 1561 1561 1561 1562 1562 1562 1563 1563 1563 1564 1564 1564 1564 1565 1564 1564 1564 1564 1563 1563 1563 1563 1562 1562
1535 1538 1540 1542 1544 1546 1548 1549 1550 1552 1553 1555 1556 1557 1558 1559 1560 1560 1560 1560 1560 1560 1560 1560 1560 1560 1561 1561 1561 1561 1562 1562 1562 1562 1561 1561 1560 1560 1560 1559 1559 1559 1558
1534 1537 1539 1541 1543 1545 1546 1548 1549 1551 1552 1553 1555 1556 1557 1557 1558 1558 1558 1558 1559 1558 1558 1558 1558 1558 1557 1558 1558 1558 1558 1559 1558 1558 1558 1558 1557 1557 1556 1555 1555 1555 1554
1533 1535 1537 1540 1542 1543 1545 1547 1548 1550 1551 1552 1553 1554 1555 1555 1556 1556 1556 1556 1556 1556 1556 1555 1555 1555 1555 1555 1555 1555 1555 1555 1555 1554 1554 1554 1553 1552 1552 1551 1550 1550 1550
1531 1534 1536 1538 1540 1542 1544 1546 1547 1549 1550 1550 1552 1552 1553 1553 1554 1554 1554 1554 1554 1554 1553 1553 1553 1552 1552 1551 1551 1551 1551 1551 1550 1550 1550 1549 1548 1548 1547 1546 1545 1545 1544
1530 1533 1535 1537 1539 1541 1543 1545 1546 1547 1548 1549 1550 1550 1551 1551 1551 1551 1551 1551 1551 1550 1550 1549 1549 1549 1548 1548 1547 1547 1547 1546 1546 1545 1545 1544 1543 1542 1541 1540 1539 1538 1538
1529 1531 1533 1536 1538 1539 1541 1543 1544 1546 1546 1547 1548 1548 1549 1549 1549 1549 1548 1548 1548 1547 1547 1546 1545 1545 1544 1544 1543 1543 1542 1542 1541 1540 1539 1538 1537 1536 1535 1534 1532 1531 1531
1527 1530 1532 1534 1536 1538 1539 1541 1542 1543 1544 1544 1545 1546 1546 1546 1546 1546 1546 1545 1545 1544 1543 1543 1542 1541 1540 1539 1538 1537 1536 1536 1535 1534 1533 1532 1530 1529 1528 1527 1526 1524 1523
1526 1528 1530 1532 1534 1535 1537 1538 1539 1540 1541 1542 1543 1543 1544 1544 1544 1544 1543 1542 1542 1541 1540 1539 1538 1537 1536 1535 1534 1532 1531 1530 1529 1528 1526 1526 1524 1523 1522 1520 1519 1517 1516
1524 1526 1529 1530 1532 1533 1535 1536 1537 1538 1539 1540 1541 1541 1542 1542 1542 1542 1541 1540 1539 1538 1537 1536 1535 1534 1533 1532 1530 1529 1527 1525 1524 1524 1521 1520 1519 1516 1515 1514 1513 1511 1509
1523 1525 1527 1529 1531 1532 1533 1534 1536 1537 1538 1539 1540 1540 1541 1541 1540 1540 1539 1538 1537 1536 1535 1534 1532 1531 1530 1528 1527 1525 1524 1522 1520 1518 1516 1513 1513 1511 1510 1508 1507 1505 1503
1521 1524 1526 1528 1530 1531 1533 1534 1535 1536 1537 1538 1539 1539 1540 1539 1539 1538 1537 1536 1535 1534 1533 1531 1530 1529 1527 1526 1524 1522 1520 1518 1517 1516 1512 1509 1507 1505 1504 1503 1501 1499 1497
1520 1523 1525 1528 1530 1531 1533 1534 1536 1536 1537 1538 1538 1539 1539 1538 1538 1537 1536 1535 1534 1533 1532 1530 1528 1527 1525 1523 1521 1519 1517 1515 1512 1511 1509 1506 1502 1499 1497 1496 1495 1493 1491
1519 1522 1525 1528 1530 1532 1534 1535 1537 1537 1537 1538 1538 1538 1537 1537 1536 1535 1534 1533 1532 1531 1530 1528 1527 1525 1523 1521 1519 1517 1514 1512 1509 1507 1505 1502 1498 1495 1491 1489 1488 1486 1484